2019-096C (44907 NORAD) Tracking and Keplerian Element Data

This shows tracking and keplerian element data for the satellite.

Feedback or suggestion? Click here.




ElementValue
Catalog44907
Name2019-096C
Epoch Orbit328
Epoch Day22.48064659
Epoch Year2020
RAAN93.9234
Inclination82.5205
Eccentricity0.0004428
Argument of Perigee281.0438
Mean Anonmoly79.0142
Mean Motion12.4051126
Decay Rate-8.3E-07
L11 44907U 19096C 20022.48064659 -.00000083 00000-0 -68777-3 0 9998
L22 44907 82.5205 93.9234 0004428 281.0438 79.0142 12.40511260 3280

Live tracking and technical data element details for 2019-096C (NORAD 44907). 2019-096C can be tracked NOW for your location showing map with azimuth and elevation plus other details from your city location.

Track the satellite on the map from your city or location and see movement details for azimuth, elevation, latitude, longitude, range, height, and movement on the map or in text.







IsCatalogInMostPopularTable: catalog: 44907, numindb: 5
Update: records affected: 1



GetName: 44907 2019-096C

Hit Count: updated at: Fri, 24 Jan 2020 12:17:41 GMT